Weather in Albuquerque

United States     35°05′03″N   106°38′55″W
temp.,
°C
wind,
m/s
gust,
m/s
humid.,
%
clouds,
%
prec.,
mm/h
press.,
hPa
HPBL,
m
16 may, sun
sun1600:00+18s223288 0.0 100839
03:00+16ese223392 0.0 100940
06:00+14ne12417 0.0 101040
09:00+19ene11290 0.0 1011517
12:00+25ssw25170 0.0 10082873
15:00+27s47135 0.0 10043983
18:00+28ssw910792 0.0 10014868
21:00+24w812115 0.0 1003435
17 may, mon
mon1700:00+18sw22150 0.0 100735
03:00+16wnw46180 0.0 1008120
06:00+14sw33240 0.0 100840
09:00+18s33220 0.0 1008655
12:00+22sse441438 0.0 10063061
15:00+24ssw551044 0.0 10033713
18:00+21wsw121018100 0.0 10042315
21:00+18wnw342519 0.1 1006392
18 may, tue
tue1800:00+15wsw463647 0.3 1008188
03:00+14w4739100 0.1 1007174
06:00+12s0152100 0.2 100859
09:00+15ene123947 0.1 1009562
12:00+21nnw6622100 0.1 10062670
15:00+20nw5526100 0.1 10052377
18:00+18wnw7833100 0.2 10072112
21:00+16wsw13415 0.0 1007464
19 may, wed
wed1900:00+15nnw344633 0.0 1008130
03:00+14nnw234890 0.1 1008175
06:00+12ne11565 0.1 100940
09:00+16ssw11410 0.0 1009637
12:00+22w14280 0.0 10071485
15:00+27n271534 0.0 10023755
18:00+25wnw24192 0.1 1002703
21:00+23s452786 0.3 1005226
20 may, thu
thu2000:00+21sw3529100 0.5 1008197
03:00+18sse223331 0.0 100818
06:00+16ssw23360 0.0 101127
09:00+21s22260 0.0 1011530
12:00+26ssw57185 0.0 10082644
15:00+28sw11111699 0.0 10053957
18:00+26ssw81217100 0.0 10053177
21:00+23ssw5820100 0.0 1007313